| time (UTC) | temp F | wind direction | speed MPH | gust MPH | rain 1hr in | rain 24hr in | rain mn in | humidity % | barometer mb |
| 20260506171539 | 67 | 189 | 0.0 | 6.0 | 0.00 | 0.00 | 0.00 | 76 | 1004.1 |
| 20260506171041 | 68 | 129 | 6.0 | 6.0 | 0.00 | 0.00 | 0.00 | 75 | 1004.1 |
| 20260506170538 | 68 | 315 | 0.0 | 0.0 | 0.00 | 0.00 | 0.00 | 73 | 1004.1 |
| 20260506170038 | 68 | 106 | 0.0 | 0.0 | 0.00 | 0.00 | 0.00 | 73 | 1004.1 |
| 20260506165540 | 69 | 55 | 0.0 | 0.0 | 0.00 | 0.00 | 0.00 | 72 | 1004.1 |
| 20260506165038 | 69 | 135 | 0.0 | 0.0 | 0.00 | 0.00 | 0.00 | 72 | 1004.1 |
| 20260506164535 | 69 | 169 | 0.0 | 5.0 | 0.00 | 0.00 | 0.00 | 72 | 1004.1 |
| 20260506164037 | 69 | 122 | 5.0 | 5.0 | 0.00 | 0.00 | 0.00 | 72 | 1004.1 |
| 20260506163534 | 69 | 17 | 5.0 | 5.0 | 0.00 | 0.00 | 0.00 | 72 | 1004.1 |
| 20260506163033 | 69 | 14 | 0.0 | 0.0 | 0.00 | 0.00 | 0.00 | 72 | 1004.1 |
| 20260506162537 | 69 | 30 | 0.0 | 0.0 | 0.00 | 0.00 | 0.00 | 72 | 1005.1 |
| 20260506162033 | 69 | 4 | 0.0 | 0.0 | 0.00 | 0.00 | 0.00 | 72 | 1005.1 |
| 20260506161533 | 69 | 346 | 0.0 | 0.0 | 0.00 | 0.00 | 0.00 | 72 | 1005.1 |
| 20260506161036 | 69 | 311 | 0.0 | 5.0 | 0.00 | 0.00 | 0.00 | 72 | 1005.1 |
| 20260506160534 | 70 | 110 | 5.0 | 5.0 | 0.00 | 0.00 | 0.00 | 72 | 1005.1 |
| 20260506160033 | 70 | 140 | 5.0 | 5.0 | 0.00 | 0.00 | 0.00 | 72 | 1005.1 |
| 20260506155535 | 70 | 211 | 0.0 | 6.0 | 0.00 | 0.00 | 0.00 | 72 | 1005.1 |
| 20260506154532 | 70 | 165 | 0.0 | 5.0 | 0.00 | 0.00 | 0.00 | 71 | 1005.1 |
| 20260506154035 | 70 | 159 | 5.0 | 5.0 | 0.00 | 0.00 | 0.00 | 71 | 1005.1 |
| 20260506153032 | 70 | 95 | 0.0 | 0.0 | 0.00 | 0.00 | 0.00 | 71 | 1005.1 |
| 20260506152534 | 70 | 105 | 0.0 | 0.0 | 0.00 | 0.00 | 0.00 | 71 | 1005.1 |
| 20260506151532 | 70 | 108 | 0.0 | 5.0 | 0.00 | 0.00 | 0.00 | 71 | 1005.1 |
| 20260506151033 | 70 | 151 | 5.0 | 5.0 | 0.00 | 0.00 | 0.00 | 71 | 1005.1 |
| 20260506150531 | 71 | 219 | 0.0 | 0.0 | 0.00 | 0.00 | 0.00 | 70 | 1005.1 |
| 20260506150031 | 71 | 219 | 0.0 | 5.0 | 0.00 | 0.00 | 0.00 | 70 | 1005.1 |
| 20260506145533 | 72 | 97 | 5.0 | 5.0 | 0.00 | 0.00 | 0.00 | 70 | 1005.1 |
| 20260506144531 | 73 | 53 | 0.0 | 0.0 | 0.00 | 0.00 | 0.00 | 69 | 1005.1 |
| 20260506144032 | 74 | 209 | 0.0 | 5.0 | 0.00 | 0.00 | 0.00 | 69 | 1005.1 |
| 20260506143530 | 74 | 67 | 5.0 | 5.0 | 0.00 | 0.00 | 0.00 | 69 | 1005.1 |
| 20260506142532 | 75 | 50 | 0.0 | 0.0 | 0.00 | 0.00 | 0.00 | 70 | 1005.1 |
| 20260506142030 | 75 | 162 | 0.0 | 5.0 | 0.00 | 0.00 | 0.00 | 70 | 1005.1 |
| 20260506141530 | 74 | 137 | 5.0 | 6.0 | 0.00 | 0.00 | 0.00 | 71 | 1005.1 |
| 20260506141031 | 73 | 59 | 6.0 | 6.0 | 0.00 | 0.00 | 0.00 | 71 | 1005.1 |
| 20260506140529 | 73 | 85 | 6.0 | 6.0 | 0.00 | 0.00 | 0.00 | 72 | 1005.1 |
| 20260506140030 | 73 | 316 | 5.0 | 12.0 | 0.00 | 0.00 | 0.00 | 72 | 1005.1 |
| 20260506135531 | 73 | 125 | 12.0 | 12.0 | 0.00 | 0.00 | 0.00 | 72 | 1005.1 |
| 20260506135028 | 73 | 160 | 5.0 | 5.0 | 0.00 | 0.00 | 0.00 | 73 | 1005.1 |
| 20260506134528 | 73 | 117 | 5.0 | 5.0 | 0.00 | 0.00 | 0.00 | 73 | 1005.1 |
| 20260506134031 | 73 | 241 | 0.0 | 0.0 | 0.00 | 0.00 | 0.00 | 73 | 1005.1 |
| 20260506133529 | 72 | 56 | 0.0 | 0.0 | 0.00 | 0.00 | 0.00 | 75 | 1005.1 |
| 20260506133028 | 73 | 159 | 0.0 | 0.0 | 0.00 | 0.00 | 0.00 | 75 | 1005.1 |
| 20260506132528 | 73 | 112 | 0.0 | 0.0 | 0.00 | 0.00 | 0.00 | 75 | 1005.1 |
| 20260506132028 | 73 | 87 | 0.0 | 0.0 | 0.00 | 0.00 | 0.00 | 75 | 1005.1 |
| 20260506131528 | 74 | 91 | 0.0 | 0.0 | 0.00 | 0.00 | 0.00 | 75 | 1005.1 |
| 20260506131027 | 75 | 142 | 0.0 | 0.0 | 0.00 | 0.00 | 0.00 | 75 | 1005.1 |
| 20260506130527 | 75 | 76 | 0.0 | 8.0 | 0.00 | 0.00 | 0.00 | 75 | 1005.1 |
| 20260506130028 | 75 | 114 | 8.0 | 8.0 | 0.00 | 0.00 | 0.00 | 76 | 1005.1 |
| 20260506125527 | 74 | 154 | 0.0 | 6.0 | 0.00 | 0.00 | 0.00 | 76 | 1005.1 |
| 20260506125027 | 75 | 98 | 6.0 | 6.0 | 0.00 | 0.00 | 0.00 | 76 | 1005.1 |
| 20260506124526 | 75 | 196 | 0.0 | 5.0 | 0.00 | 0.00 | 0.00 | 76 | 1005.1 |
| 20260506124026 | 75 | 70 | 5.0 | 5.0 | 0.00 | 0.00 | 0.00 | 76 | 1006.1 |
| 20260506123526 | 74 | 138 | 0.0 | 0.0 | 0.00 | 0.00 | 0.00 | 77 | 1006.1 |
| 20260506123027 | 72 | 2 | 0.0 | 0.0 | 0.00 | 0.00 | 0.00 | 78 | 1006.1 |
| 20260506122527 | 70 | 143 | 0.0 | 0.0 | 0.00 | 0.00 | 0.00 | 81 | 1006.1 |
| 20260506122026 | 69 | 93 | 0.0 | 5.0 | 0.00 | 0.00 | 0.00 | 81 | 1006.1 |
| 20260506121526 | 69 | 166 | 5.0 | 5.0 | 0.00 | 0.00 | 0.00 | 81 | 1006.1 |
| 20260506121025 | 69 | 180 | 0.0 | 7.0 | 0.00 | 0.00 | 0.00 | 81 | 1005.1 |
| 20260506120527 | 70 | 181 | 7.0 | 7.0 | 0.00 | 0.00 | 0.00 | 81 | 1005.1 |
| 20260506120025 | 70 | 185 | 0.0 | 0.0 | 0.00 | 0.00 | 0.00 | 81 | 1005.1 |
| 20260506115525 | 69 | 107 | 0.0 | 6.0 | 0.00 | 0.00 | 0.00 | 82 | 1005.1 |
| 20260506115026 | 68 | 120 | 6.0 | 6.0 | 0.00 | 0.00 | 0.00 | 83 | 1005.1 |
| 20260506114525 | 68 | 152 | 0.0 | 5.0 | 0.00 | 0.00 | 0.00 | 84 | 1005.1 |
| 20260506114025 | 67 | 129 | 5.0 | 5.0 | 0.00 | 0.00 | 0.00 | 84 | 1006.1 |
| 20260506113525 | 66 | 125 | 5.0 | 5.0 | 0.00 | 0.00 | 0.00 | 84 | 1006.1 |
| 20260506113025 | 66 | 108 | 0.0 | 0.0 | 0.00 | 0.00 | 0.00 | 85 | 1006.1 |
| 20260506112524 | 66 | 112 | 0.0 | 0.0 | 0.00 | 0.00 | 0.00 | 85 | 1005.1 |
| 20260506112024 | 66 | 357 | 0.0 | 0.0 | 0.00 | 0.00 | 0.00 | 85 | 1005.1 |
| 20260506111524 | 66 | 55 | 0.0 | 0.0 | 0.00 | 0.00 | 0.00 | 87 | 1005.1 |
| 20260506111024 | 65 | 55 | 0.0 | 0.0 | 0.00 | 0.00 | 0.00 | 87 | 1005.1 |
| 20260506110023 | 63 | 56 | 0.0 | 0.0 | 0.00 | 0.00 | 0.00 | 88 | 1005.1 |
| 20260506105524 | 62 | 353 | 0.0 | 0.0 | 0.00 | 0.00 | 0.00 | 89 | 1006.1 |
| 20260506105023 | 61 | 353 | 0.0 | 0.0 | 0.00 | 0.00 | 0.00 | 89 | 1006.1 |
| 20260506104524 | 61 | 77 | 0.0 | 0.0 | 0.00 | 0.00 | 0.00 | 89 | 1006.1 |
| 20260506104023 | 60 | 77 | 0.0 | 0.0 | 0.00 | 0.00 | 0.00 | 89 | 1005.1 |
| 20260506103524 | 60 | 77 | 0.0 | 0.0 | 0.00 | 0.00 | 0.00 | 89 | 1005.1 |
| 20260506103023 | 60 | 77 | 0.0 | 0.0 | 0.00 | 0.00 | 0.00 | 89 | 1005.1 |
| 20260506102522 | 59 | 77 | 0.0 | 0.0 | 0.00 | 0.00 | 0.00 | 88 | 1005.1 |
| 20260506101522 | 59 | 77 | 0.0 | 0.0 | 0.00 | 0.00 | 0.00 | 88 | 1005.1 |
| 20260506101022 | 59 | 77 | 0.0 | 0.0 | 0.00 | 0.00 | 0.00 | 88 | 1005.1 |
| 20260506100523 | 59 | 80 | 0.0 | 0.0 | 0.00 | 0.00 | 0.00 | 88 | 1005.1 |
| 20260506100021 | 59 | 80 | 0.0 | 0.0 | 0.00 | 0.00 | 0.00 | 87 | 1005.1 |
| 20260506095521 | 59 | 80 | 0.0 | 0.0 | 0.00 | 0.00 | 0.00 | 87 | 1005.1 |
| 20260506095021 | 59 | 80 | 0.0 | 0.0 | 0.00 | 0.00 | 0.00 | 87 | 1005.1 |
| 20260506094521 | 59 | 80 | 0.0 | 0.0 | 0.00 | 0.00 | 0.00 | 87 | 1005.1 |
| 20260506094021 | 59 | 80 | 0.0 | 0.0 | 0.00 | 0.00 | 0.00 | 85 | 1005.1 |
| 20260506093521 | 59 | 80 | 0.0 | 0.0 | 0.00 | 0.00 | 0.00 | 85 | 1005.1 |
| 20260506093022 | 59 | 80 | 0.0 | 0.0 | 0.00 | 0.00 | 0.00 | 85 | 1005.1 |
| 20260506092521 | 59 | 80 | 0.0 | 0.0 | 0.00 | 0.00 | 0.00 | 85 | 1005.1 |
| 20260506092020 | 59 | 80 | 0.0 | 0.0 | 0.00 | 0.00 | 0.00 | 85 | 1005.1 |
| 20260506091521 | 59 | 80 | 0.0 | 0.0 | 0.00 | 0.00 | 0.00 | 84 | 1005.1 |
| 20260506091020 | 59 | 80 | 0.0 | 0.0 | 0.00 | 0.00 | 0.00 | 84 | 1006.1 |
| 20260506090520 | 59 | 80 | 0.0 | 0.0 | 0.00 | 0.00 | 0.00 | 84 | 1006.1 |
| 20260506090020 | 59 | 80 | 0.0 | 0.0 | 0.00 | 0.00 | 0.00 | 84 | 1006.1 |
| 20260506085521 | 59 | 80 | 0.0 | 0.0 | 0.00 | 0.00 | 0.00 | 84 | 1006.1 |
| 20260506085019 | 59 | 80 | 0.0 | 0.0 | 0.00 | 0.00 | 0.00 | 84 | 1006.1 |
| 20260506084519 | 59 | 80 | 0.0 | 0.0 | 0.00 | 0.00 | 0.00 | 83 | 1006.1 |
| 20260506084019 | 59 | 84 | 0.0 | 0.0 | 0.00 | 0.00 | 0.00 | 83 | 1006.1 |
| 20260506083519 | 59 | 91 | 0.0 | 0.0 | 0.00 | 0.00 | 0.00 | 83 | 1006.1 |
| 20260506082520 | 59 | 91 | 0.0 | 0.0 | 0.00 | 0.00 | 0.00 | 83 | 1006.1 |
| 20260506082018 | 59 | 92 | 0.0 | 0.0 | 0.00 | 0.00 | 0.00 | 83 | 1006.1 |
| 20260506081518 | 59 | 113 | 0.0 | 0.0 | 0.00 | 0.00 | 0.00 | 83 | 1006.1 |
| 20260506081020 | 59 | 113 | 0.0 | 0.0 | 0.00 | 0.00 | 0.00 | 82 | 1006.1 |
| 20260506080519 | 59 | 95 | 0.0 | 0.0 | 0.00 | 0.00 | 0.00 | 82 | 1006.1 |
| 20260506073047 | 59 | 44 | 0.0 | 0.0 | 0.00 | 0.00 | 0.00 | 82 | 1006.1 |
| 20260506072519 | 59 | 197 | 0.0 | 0.0 | 0.00 | 0.00 | 0.00 | 81 | 1006.1 |
| 20260506072017 | 59 | 357 | 0.0 | 7.0 | 0.00 | 0.00 | 0.00 | 81 | 1006.1 |
| 20260506071547 | 59 | 92 | 7.0 | 7.0 | 0.00 | 0.00 | 0.00 | 81 | 1006.1 |
| 20260506071018 | 58 | 260 | 0.0 | 0.0 | 0.00 | 0.00 | 0.00 | 81 | 1006.1 |
| 20260506070546 | 58 | 31 | 0.0 | 0.0 | 0.00 | 0.00 | 0.00 | 81 | 1006.1 |
| 20260506062015 | 58 | 37 | 0.0 | 0.0 | 0.00 | 0.00 | 0.00 | 78 | 1006.1 |
| 20260506061514 | 58 | 37 | 0.0 | 0.0 | 0.00 | 0.00 | 0.00 | 78 | 1006.1 |
| 20260506061016 | 58 | 37 | 0.0 | 0.0 | 0.00 | 0.00 | 0.00 | 78 | 1006.1 |
| 20260506060515 | 58 | 37 | 0.0 | 0.0 | 0.00 | 0.00 | 0.00 | 78 | 1006.1 |
| 20260506050542 | 59 | 139 | 0.0 | 0.0 | 0.00 | 0.00 | 0.00 | 75 | 1006.1 |
| 20260506045043 | 59 | 1 | 0.0 | 0.0 | 0.00 | 0.00 | 0.00 | 75 | 1006.1 |
| 20260506044543 | 59 | 109 | 0.0 | 0.0 | 0.00 | 0.00 | 0.00 | 73 | 1006.1 |
| 20260506044042 | 59 | 109 | 0.0 | 0.0 | 0.00 | 0.00 | 0.00 | 73 | 1006.1 |
| 20260506043511 | 59 | 93 | 0.0 | 0.0 | 0.00 | 0.00 | 0.00 | 73 | 1006.1 |
| 20260506043042 | 60 | 94 | 0.0 | 6.0 | 0.00 | 0.00 | 0.00 | 73 | 1006.1 |
| 20260506042513 | 60 | 113 | 6.0 | 6.0 | 0.00 | 0.00 | 0.00 | 73 | 1006.1 |
| 20260506042011 | 60 | 235 | 0.0 | 0.0 | 0.00 | 0.00 | 0.00 | 73 | 1006.1 |
| 20260506041541 | 60 | 235 | 0.0 | 5.0 | 0.00 | 0.00 | 0.00 | 73 | 1006.1 |
| 20260506041011 | 60 | 126 | 5.0 | 5.0 | 0.00 | 0.00 | 0.00 | 73 | 1006.1 |
| 20260506040541 | 60 | 106 | 0.0 | 0.0 | 0.00 | 0.00 | 0.00 | 73 | 1006.1 |
| 20260506034541 | 60 | 85 | 0.0 | 0.0 | 0.00 | 0.00 | 0.00 | 72 | 1006.1 |
| 20260506034040 | 60 | 174 | 0.0 | 0.0 | 0.00 | 0.00 | 0.00 | 71 | 1006.1 |
| 20260506033539 | 60 | 91 | 0.0 | 0.0 | 0.00 | 0.00 | 0.00 | 71 | 1006.1 |
| 20260506033039 | 60 | 81 | 0.0 | 0.0 | 0.00 | 0.00 | 0.00 | 71 | 1006.1 |
| 20260506032540 | 60 | 48 | 0.0 | 0.0 | 0.00 | 0.00 | 0.00 | 71 | 1006.1 |
| 20260506032041 | 60 | 273 | 0.0 | 5.0 | 0.00 | 0.00 | 0.00 | 70 | 1006.1 |
| 20260506031539 | 60 | 21 | 5.0 | 5.0 | 0.00 | 0.00 | 0.00 | 70 | 1006.1 |
| 20260506031038 | 60 | 77 | 0.0 | 0.0 | 0.00 | 0.00 | 0.00 | 70 | 1006.1 |
| 20260506025539 | 61 | 18 | 0.0 | 5.0 | 0.00 | 0.00 | 0.00 | 69 | 1006.1 |
| 20260506025039 | 61 | 341 | 5.0 | 5.0 | 0.00 | 0.00 | 0.00 | 69 | 1006.1 |
| 20260506024538 | 61 | 60 | 0.0 | 0.0 | 0.00 | 0.00 | 0.00 | 67 | 1006.1 |
| 20260506023538 | 61 | 248 | 0.0 | 0.0 | 0.00 | 0.00 | 0.00 | 67 | 1006.1 |
| 20260506023037 | 61 | 51 | 0.0 | 5.0 | 0.00 | 0.00 | 0.00 | 67 | 1006.1 |
| 20260506022537 | 61 | 83 | 5.0 | 5.0 | 0.00 | 0.00 | 0.00 | 67 | 1006.1 |
| 20260506022037 | 61 | 270 | 5.0 | 5.0 | 0.00 | 0.00 | 0.00 | 66 | 1006.1 |
| 20260506021538 | 61 | 42 | 0.0 | 0.0 | 0.00 | 0.00 | 0.00 | 66 | 1006.1 |
| 20260506021037 | 61 | 83 | 0.0 | 5.0 | 0.00 | 0.00 | 0.00 | 66 | 1006.1 |
| 20260506020537 | 61 | 81 | 5.0 | 5.0 | 0.00 | 0.00 | 0.00 | 66 | 1006.1 |
| 20260506020037 | 61 | 92 | 0.0 | 0.0 | 0.00 | 0.00 | 0.00 | 66 | 1006.1 |
| 20260506015536 | 61 | 119 | 0.0 | 0.0 | 0.00 | 0.00 | 0.00 | 66 | 1006.1 |
| 20260506015036 | 61 | 145 | 0.0 | 0.0 | 0.00 | 0.00 | 0.00 | 65 | 1006.1 |
| 20260506014537 | 61 | 87 | 0.0 | 8.0 | 0.00 | 0.00 | 0.00 | 65 | 1006.1 |
| 20260506014036 | 61 | 333 | 8.0 | 8.0 | 0.00 | 0.00 | 0.00 | 65 | 1006.1 |
| 20260506013535 | 61 | 321 | 0.0 | 0.0 | 0.00 | 0.00 | 0.00 | 65 | 1006.1 |
| 20260506013036 | 61 | 0 | 0.0 | 10.0 | 0.00 | 0.00 | 0.00 | 65 | 1006.1 |
| 20260506012036 | 61 | 25 | 6.0 | 6.0 | 0.00 | 0.00 | 0.00 | 64 | 1005.1 |
| 20260506011035 | 61 | 60 | 6.0 | 6.0 | 0.00 | 0.00 | 0.00 | 64 | 1005.1 |
| 20260506010535 | 62 | 59 | 0.0 | 11.0 | 0.00 | 0.00 | 0.00 | 64 | 1005.1 |
| 20260506010036 | 62 | 36 | 11.0 | 11.0 | 0.00 | 0.00 | 0.00 | 64 | 1005.1 |
| 20260506005535 | 62 | 54 | 8.0 | 8.0 | 0.00 | 0.00 | 0.00 | 63 | 1005.1 |
| 20260506005036 | 62 | 51 | 6.0 | 11.0 | 0.00 | 0.00 | 0.00 | 63 | 1005.1 |
| 20260506004534 | 62 | 109 | 11.0 | 11.0 | 0.00 | 0.00 | 0.00 | 63 | 1005.1 |
| 20260506003534 | 62 | 49 | 0.0 | 0.0 | 0.00 | 0.00 | 0.00 | 63 | 1005.1 |
| 20260506003034 | 62 | 252 | 0.0 | 0.0 | 0.00 | 0.00 | 0.00 | 61 | 1005.1 |
| 20260506002034 | 63 | 108 | 5.0 | 5.0 | 0.00 | 0.00 | 0.00 | 61 | 1004.1 |
| 20260506001534 | 63 | 16 | 0.0 | 0.0 | 0.00 | 0.00 | 0.00 | 61 | 1004.1 |
| 20260506001034 | 63 | 54 | 0.0 | 0.0 | 0.00 | 0.00 | 0.00 | 60 | 1004.1 |
| 20260506000533 | 63 | 206 | 0.0 | 0.0 | 0.00 | 0.00 | 0.00 | 60 | 1004.1 |
| 20260506000034 | 63 | 253 | 0.0 | 0.0 | 0.00 | 0.00 | 0.00 | 60 | 1004.1 |
| 20260505235533 | 63 | 45 | 0.0 | 5.0 | 0.00 | 0.00 | 0.00 | 60 | 1004.1 |
| 20260505235033 | 63 | 25 | 5.0 | 10.0 | 0.00 | 0.00 | 0.00 | 60 | 1004.1 |
| 20260505234532 | 64 | 32 | 10.0 | 10.0 | 0.00 | 0.00 | 0.00 | 60 | 1004.1 |
| 20260505234033 | 64 | 99 | 0.0 | 0.0 | 0.00 | 0.00 | 0.00 | 60 | 1004.1 |
| 20260505233532 | 64 | 342 | 0.0 | 5.0 | 0.00 | 0.00 | 0.00 | 60 | 1004.1 |
| 20260505233033 | 64 | 302 | 5.0 | 5.0 | 0.00 | 0.00 | 0.00 | 59 | 1004.1 |
| 20260505232531 | 65 | 104 | 0.0 | 0.0 | 0.00 | 0.00 | 0.00 | 59 | 1004.1 |
| 20260505232031 | 65 | 53 | 0.0 | 0.0 | 0.00 | 0.00 | 0.00 | 59 | 1004.1 |
| 20260505231531 | 66 | 160 | 0.0 | 0.0 | 0.00 | 0.00 | 0.00 | 59 | 1004.1 |
| 20260505231031 | 66 | 280 | 0.0 | 0.0 | 0.00 | 0.00 | 0.00 | 59 | 1004.1 |
| 20260505230531 | 66 | 178 | 0.0 | 0.0 | 0.00 | 0.00 | 0.00 | 59 | 1004.1 |
| 20260505230032 | 66 | 173 | 0.0 | 0.0 | 0.00 | 0.00 | 0.00 | 58 | 1004.1 |
| 20260505225032 | 67 | 146 | 0.0 | 0.0 | 0.00 | 0.00 | 0.00 | 58 | 1004.1 |
| 20260505224030 | 67 | 106 | 0.0 | 0.0 | 0.00 | 0.00 | 0.00 | 58 | 1004.1 |
| 20260505223531 | 68 | 164 | 0.0 | 0.0 | 0.00 | 0.00 | 0.00 | 58 | 1004.1 |
| 20260505223030 | 68 | 167 | 0.0 | 0.0 | 0.00 | 0.00 | 0.00 | 58 | 1004.1 |
| 20260505222532 | 68 | 129 | 0.0 | 0.0 | 0.00 | 0.00 | 0.00 | 58 | 1004.1 |
| 20260505222030 | 68 | 118 | 0.0 | 5.0 | 0.00 | 0.00 | 0.00 | 58 | 1004.1 |
| 20260505221530 | 68 | 267 | 5.0 | 5.0 | 0.00 | 0.00 | 0.00 | 58 | 1004.1 |
| 20260505220529 | 68 | 179 | 0.0 | 8.0 | 0.00 | 0.00 | 0.00 | 57 | 1004.1 |
| 20260505220029 | 69 | 106 | 8.0 | 8.0 | 0.00 | 0.00 | 0.00 | 57 | 1004.1 |
| 20260505215029 | 69 | 61 | 5.0 | 5.0 | 0.00 | 0.00 | 0.00 | 57 | 1004.1 |
| 20260505214529 | 69 | 133 | 0.0 | 5.0 | 0.00 | 0.00 | 0.00 | 58 | 1004.1 |
| 20260505213529 | 69 | 143 | 0.0 | 0.0 | 0.00 | 0.00 | 0.00 | 58 | 1004.1 |
| 20260505213028 | 69 | 182 | 0.0 | 5.0 | 0.00 | 0.00 | 0.00 | 58 | 1004.1 |
| 20260505212530 | 69 | 130 | 5.0 | 5.0 | 0.00 | 0.00 | 0.00 | 58 | 1004.1 |
| 20260505212028 | 69 | 152 | 0.0 | 0.0 | 0.00 | 0.00 | 0.00 | 57 | 1004.1 |
| 20260505211527 | 69 | 168 | 0.0 | 5.0 | 0.00 | 0.00 | 0.00 | 57 | 1004.1 |
| 20260505211027 | 69 | 162 | 5.0 | 8.0 | 0.00 | 0.00 | 0.00 | 57 | 1003.1 |
| 20260505210527 | 69 | 116 | 8.0 | 8.0 | 0.00 | 0.00 | 0.00 | 57 | 1003.1 |
| 20260505210028 | 69 | 157 | 5.0 | 5.0 | 0.00 | 0.00 | 0.00 | 57 | 1003.1 |
| 20260505205529 | 70 | 302 | 0.0 | 0.0 | 0.00 | 0.00 | 0.00 | 57 | 1003.1 |
| 20260505205027 | 70 | 142 | 0.0 | 5.0 | 0.00 | 0.00 | 0.00 | 57 | 1003.1 |
| 20260505204527 | 70 | 92 | 5.0 | 6.0 | 0.00 | 0.00 | 0.00 | 57 | 1003.1 |
| 20260505204026 | 70 | 183 | 6.0 | 6.0 | 0.00 | 0.00 | 0.00 | 57 | 1004.1 |
| 20260505203527 | 70 | 144 | 0.0 | 0.0 | 0.00 | 0.00 | 0.00 | 57 | 1004.1 |
| 20260505203026 | 70 | 186 | 0.0 | 0.0 | 0.00 | 0.00 | 0.00 | 57 | 1004.1 |
| 20260505202526 | 70 | 197 | 0.0 | 5.0 | 0.00 | 0.00 | 0.00 | 57 | 1004.1 |
| 20260505202026 | 70 | 166 | 5.0 | 5.0 | 0.00 | 0.00 | 0.00 | 57 | 1004.1 |
| 20260505201526 | 71 | 72 | 5.0 | 5.0 | 0.00 | 0.00 | 0.00 | 57 | 1004.1 |
| 20260505201026 | 71 | 17 | 5.0 | 5.0 | 0.00 | 0.00 | 0.00 | 57 | 1004.1 |
| 20260505200525 | 71 | 220 | 0.0 | 0.0 | 0.00 | 0.00 | 0.00 | 57 | 1004.1 |
| 20260505200026 | 71 | 167 | 0.0 | 6.0 | 0.00 | 0.00 | 0.00 | 57 | 1004.1 |
| 20260505195025 | 71 | 170 | 5.0 | 5.0 | 0.00 | 0.00 | 0.00 | 55 | 1004.1 |
| 20260505194525 | 72 | 128 | 5.0 | 5.0 | 0.00 | 0.00 | 0.00 | 55 | 1004.1 |
| 20260505193524 | 72 | 160 | 5.0 | 5.0 | 0.00 | 0.00 | 0.00 | 55 | 1004.1 |
| 20260505193024 | 73 | 103 | 5.0 | 8.0 | 0.00 | 0.00 | 0.00 | 55 | 1004.1 |
| 20260505192525 | 73 | 152 | 8.0 | 8.0 | 0.00 | 0.00 | 0.00 | 55 | 1004.1 |
| 20260505192024 | 73 | 328 | 0.0 | 0.0 | 0.00 | 0.00 | 0.00 | 55 | 1004.1 |
| 20260505191524 | 74 | 191 | 0.0 | 5.0 | 0.00 | 0.00 | 0.00 | 55 | 1004.1 |
| 20260505191025 | 74 | 97 | 5.0 | 5.0 | 0.00 | 0.00 | 0.00 | 55 | 1004.1 |
| 20260505190025 | 74 | 159 | 6.0 | 6.0 | 0.00 | 0.00 | 0.00 | 55 | 1004.1 |
| 20260505185525 | 74 | 196 | 0.0 | 5.0 | 0.00 | 0.00 | 0.00 | 55 | 1004.1 |
| 20260505184024 | 74 | 149 | 8.0 | 8.0 | 0.00 | 0.00 | 0.00 | 55 | 1004.1 |
| 20260505183522 | 75 | 169 | 5.0 | 5.0 | 0.00 | 0.00 | 0.00 | 55 | 1004.1 |
| 20260505182522 | 75 | 121 | 8.0 | 8.0 | 0.00 | 0.00 | 0.00 | 55 | 1004.1 |
| 20260505182022 | 75 | 3 | 0.0 | 5.0 | 0.00 | 0.00 | 0.00 | 55 | 1004.1 |
| 20260505181522 | 75 | 110 | 5.0 | 6.0 | 0.00 | 0.00 | 0.00 | 55 | 1004.1 |
| 20260505181025 | 76 | 108 | 6.0 | 6.0 | 0.00 | 0.00 | 0.00 | 55 | 1005.1 |
| 20260505180521 | 76 | 151 | 5.0 | 6.0 | 0.00 | 0.00 | 0.00 | 55 | 1005.1 |
| 20260505180023 | 77 | 204 | 6.0 | 7.0 | 0.00 | 0.00 | 0.00 | 54 | 1005.1 |
| 20260505174521 | 77 | 177 | 5.0 | 5.0 | 0.00 | 0.00 | 0.00 | 55 | 1005.1 |
| 20260505174022 | 77 | 183 | 0.0 | 5.0 | 0.00 | 0.00 | 0.00 | 55 | 1005.1 |
| 20260505173521 | 77 | 111 | 5.0 | 7.0 | 0.00 | 0.00 | 0.00 | 55 | 1005.1 |
| 20260505173022 | 77 | 54 | 7.0 | 7.0 | 0.00 | 0.00 | 0.00 | 57 | 1005.1 |